Flag for Czech Republic Weather past 2 weeks in Ostrava, Czech Republic

Now
88 °F

Scattered clouds.


Feels Like: 87 °F
Forecast: 65 / 91 °F
Wind: 1 mph from West

Location: Ostrava / Mosnov

Current Time: Jul 5, 2015 at 7:52:08 PM

Latest Report: Jul 5, 2015 at 7:00 PM


Visibility: 16 mi

Pressure: 29.98 "Hg

Humidity: 36%

Dew point: 58 °F

Location of OstravaLocation

Historic Weather in Ostrava — Graph

°F

Ostrava temperature yesterday

Maximum temperature yesterday: 88 °F (at 5:00 PM)
Minimum temperature yesterday: 59 °F (at 6:00 AM)
Average temperature yesterday: 75 °F

Past Weeks' High & Low Weather Summary

 TemperatureHumidityPressure
High91 °F (Jul 5, 3:00 PM)99% (Jun 29, 7:00 AM)30.36 "Hg (Jun 29, 7:00 AM)
Low44 °F (Jun 22, 5:00 AM)25% (Jul 4, 5:00 PM)29.72 "Hg (Jun 23, 5:00 AM)
Average63 °F68%30.11 "Hg
* Reported Jun 20 6:00 PM — Jul 5 6:00 PM, Ostrava, Weather by CustomWeather, © 2015

Note: Actual official high and low records may vary slightly from our data, if they occured in-between our weather recording intervals... More about our weather records

Advertising

Ostrava weather history for previous 24 hours

 ConditionsComfort  
Time TempWeatherWind HumidityBarometerVisibility
6:00 PM
Sun, Jul 5
89 °FPassing clouds.N/A34%29.98 "Hg16 mi
5:00 PM91 °FPassing clouds.5 mph28%29.99 "Hg19 mi
4:00 PM91 °FPassing clouds.N/A30%30.00 "Hg19 mi
3:00 PM91 °FSunny.N/A29%30.01 "Hg19 mi
2:00 PM90 °FSunny.N/A30%30.02 "Hg19 mi
1:00 PM90 °FPassing clouds.N/A30%30.04 "Hg19 mi
12:00 PM87 °FPassing clouds.3 mph38%30.05 "Hg19 mi
11:00 AM83 °FPassing clouds.5 mph42%30.07 "Hg19 mi
10:00 AM79 °FScattered clouds.5 mph47%30.08 "Hg19 mi
9:00 AM77 °FPartly sunny.3 mph51%30.09 "Hg19 mi
8:00 AM72 °FPartly sunny.2 mph65%30.11 "Hg19 mi
7:00 AM67 °FPartly sunny.2 mph72%30.11 "Hg19 mi
6:00 AM61 °FScattered clouds.2 mph83%30.13 "Hg17 mi
5:00 AM58 °FScattered clouds.2 mph86%30.13 "Hg16 mi
4:00 AM60 °FPassing clouds.3 mph84%30.13 "Hg16 mi
3:00 AM62 °FPassing clouds.3 mph78%30.13 "Hg19 mi
2:00 AM67 °FClear.3 mph71%30.13 "Hg19 mi
1:00 AM64 °FClear.3 mph73%30.14 "Hg19 mi
12:00 AM66 °FClear.2 mph66%30.14 "Hg19 mi
10:00 PM
Sat, Jul 4
75 °FClear.N/A55%30.12 "Hg19 mi
9:00 PM80 °FPassing clouds.2 mph45%30.12 "Hg19 mi
8:00 PM85 °FPassing clouds.1 mph34%30.11 "Hg22 mi
7:00 PM86 °FPassing clouds.2 mph29%30.12 "Hg22 mi
Weather by CustomWeather, © 2015

See weather overviewHow to use our weather pages